User: anonymous   Login
Location: Unspecified
(0.0000°N, 0.0000°E)
Time: 17:07:42
(UTC+00:00)
Language:

KITSAT 1 - Orbit

View from above orbital plane
View from above orbital plane
View from above satellite
View from above satellite

Ground track
Ground track

The orbit data is extracted from the following two-line orbital elements,

1 22077U 92052B   17264.84578671 -.00000032  00000-0  11868-3 0  9995
2 22077  66.0835 124.0897 0013243 301.8738 144.1693 12.86519627179824
Epoch (UTC): 21 September 2017 20:17:55
Eccentricity: 0.0013243
inclination: 66.0835°
perigee height: 1305 km
apogee height: 1325 km
right ascension of ascending node: 124.0897°
argument of perigee: 301.8738°
revolutions per day: 12.86519627
mean anomaly at epoch: 144.1693°
orbit number at epoch: 17982

The dashed part of the orbit path shows where the satellite is in the earth's shadow,  

DLR